Location: Brompton
(51.4000°N, 0.5333°E)
Time: 18:36:53
(UTC+00:00)

USA 245 - Pass Details

Date: 11 May 2021
Orbit: 265 x 982 km, 97.9° (Epoch: 13 June)

Event Time Altitude Azimuth Distance (km) Brightness Sun altitude
Exits shadow 21:22:55 17° 206° (SSW) 798 3.9 -13.0°
Maximum altitude 21:24:13 30° 260° (W) 519 3.5 -13.1°
Drops below altitude 10° 21:26:17 10° 326° (NNW) 1,101 6.4 -13.3°
Sets 21:28:16 0° 338° (NNW) 1,960 7.8 -13.5°
